Location: Dob?e?
(49.9411°N, 15.1496°E)
Time: 17:38:06
(UTC+00:00)

X-37B - Pass Details

Date: 07 August 2021
Orbit: 381 x 393 km, 45.0° (Epoch: 29 August)

Event Time Altitude Azimuth Distance (km) Brightness Sun altitude
Exits shadow 02:33:16 14° 238° (WSW) 1,174 2.4 -9.5°
Maximum altitude 02:35:31 33° 178° (S) 670 1.5 -9.2°
Drops below altitude 10° 02:38:23 10° 112° (ESE) 1,398 3.8 -8.8°
Sets 02:40:33 0° 102° (ESE) 2,251 5.1 -8.5°
